Simultaneous Nadir Overpasses (SNOs) Predictions

Prediction of SNOs between METOP-A and NOAA-19 Satellite Orbit:

Table of predicted SNOs for the next 14.0 days since TLE Epoch: 12/22/2017
Index Date (METOP-A) Time (METOP-A) Lat,Lon (METOP-A) SZA (METOP-A ) Date (NOAA-19) Time (NOAA-19) Lat,Lon (NOAA-19) SZA (NOAA-19 ) Distance(km) Time Diff (sec)
1 12/30/2017 14:40:06 78.33, -31.47 101.49 12/30/2017 14:39:00 78.29, -34.89 101.38 77.20 66
2 12/30/2017 15:30:56 -78.00, 134.11 78.89 12/30/2017 15:29:53 -78.01, 134.02 78.88 2.65 63
3 12/30/2017 16:21:36 77.98, -58.62 101.10 12/30/2017 16:20:53 77.98, -58.53 101.09 2.32 43
4 12/30/2017 17:12:18 -77.98, 108.66 78.92 12/30/2017 17:11:54 -78.00, 108.60 78.90 3.00 24
5 12/30/2017 18:02:58 77.96, -84.07 101.07 12/30/2017 18:02:54 77.96, -83.96 101.07 2.52 4
6 12/30/2017 18:53:40 -77.95, 83.22 78.95 12/30/2017 18:53:55 -77.98, 83.17 78.92 3.53 15
7 12/30/2017 19:44:20 77.94,-109.51 101.04 12/30/2017 19:44:55 77.95,-109.39 101.06 2.98 35
8 12/30/2017 20:35:02 -77.93, 57.78 78.97 12/30/2017 20:35:56 -77.97, 57.75 78.93 4.16 54
9 12/30/2017 21:25:42 77.92,-134.95 101.02 12/30/2017 21:26:56 77.94,-134.82 101.04 3.59 74




NCC Satellite Simultaneous Nadir Overpasses (SNOs) Prediction Service
